Regional Weather Roundup
Issued by NWS Bismarck, ND

Home | Current Version | Previous Version | Text Only | Print | Product List | Glossary On
Versions: 1 2 3 4 5 6 7 8 9 10 11 12 13 14 15 16 17 18 19 20 21 22 23 24 25 26 27 28 29 30 31 32 33 34 35 36 37 38 39 40 41 42 43 44 45 46 47 48 49 50
000
ASUS43 KBIS 261610
RWRBIS

NWR BROADCAST TEXT
NATIONAL WEATHER SERVICE BISMARCK ND
1100 AM CDT WED JUL 26 2017

NOTE: "FAIR" INDICATES FEW OR NO CLOUDS BELOW 12,000 FEET WITH NO
SIGNIFICANT WEATHER AND/OR OBSTRUCTIONS TO VISIBILITY.


CITY           SKY/WX    TMP DP  RH WIND       PRES   REMARKS
WILLISTON      SUNNY     79  53  40 CALM      30.15S
MINOT          SUNNY     76  57  51 NW8       30.15R
MINOT AFB      SUNNY     74  56  55 NW8       30.13S
BISMARCK       SUNNY     81  56  42 N8        30.13R
DICKINSON      SUNNY     79  54  41 E7        30.14S
GARRISON         N/A     77  55  46 VRB7G17   30.14R
HETTINGER ARPT SUNNY     80  49  33 E6        30.17R
JAMESTOWN      SUNNY     78  58  49 NW15      30.10R
HAZEN          FAIR      79  54  41 N8        30.15S
LINTON         FAIR     N/A N/A N/A N8        30.14R
MANDAN         FAIR      77  57  50 N10       30.14R
STANLEY        FAIR      75  55  50 CALM      30.19S
TIOGA          FAIR      73  52  46 CALM      30.19R
WATFORD CITY   FAIR      79  52  38 CALM      30.14S
$$

CITY           SKY/WX    TMP DP  RH WIND       PRES   REMARKS
GRAND FORKS    MOSUNNY   76  63  64 NW13      30.05R
GRAND FORKS AF SUNNY     76  62  62 N10       30.06R
DEVILS LAKE    SUNNY     71  60  68 N16       30.11S
FARGO          MOSUNNY   77  62  59 N13       30.06R
CAVALIER       FAIR      72  63  73 NW12      30.06R
GRAFTON        FAIR      75  63  64 NW10      30.08R
GWINNER        SUNNY     77  63  61 N7        30.09R
LANGDON        FAIR      73  63  68 NW13      30.10R
ROLLA            N/A     72  59  64 N10       30.14R
$$

CITY           SKY/WX    TMP DP  RH WIND       PRES   REMARKS
ABERDEEN       SUNNY     79  61  53 N10       30.09R
MOBRIDGE       SUNNY     81  60  48 VRB6      30.10R
BUFFALO          N/A     80  54  40 VRB3      30.11S
RAPID CITY     CLOUDY    76  51  41 N8        30.19R
GLASGOW        SUNNY     79  49  34 SE13      30.13S
SIDNEY         SUNNY     80  55  42 VRB5      30.14S
WOLF POINT     SUNNY     78  51  38 E8        30.13F
GLENDIVE       SUNNY     78  49  35 E6        30.14S
MILES CITY     SUNNY     79  48  33 S6        30.13S
BAKER          SUNNY     82  49  31 SW8       30.17S
$$

CITY           SKY/WX    TMP DP  RH WIND       PRES   REMARKS
BILLINGS       MOSUNNY   70  49  47 SW9       30.17F
GREAT FALLS    SUNNY     72  38  29 SW6       30.14F
REGINA         MOSUNNY   73  55  53 S6        30.15F
ESTEVAN        MOSUNNY   73  57  56 CALM      30.17S
$$




USA.gov is the U.S. government's official web portal to all federal, state and local government web resources and services.